Location: Austin
(30.3000°N, 97.7500°W)
Time: 23:25:15
(UTC-06:00)

IRS-1C - Pass Details

Date: 04 November 2025
Orbit: 813 x 814 km, 99.0° (Epoch: 15 November)

Event Time Altitude Azimuth Distance (km) Brightness Sun altitude
Rises 18:11:37 0° 165° (SSE) 3,321 7.3 -7.2°
Reaches altitude 10° 18:13:56 10° 164° (SSE) 2,393 6.6 -7.7°
Maximum altitude 18:19:14 87° 77° (ENE) 819 4.1 -8.8°
Drops below altitude 10° 18:24:34 10° 348° (NNW) 2,404 6.6 -9.9°
Sets 18:26:55 0° 348° (NNW) 3,339 7.3 -10.4°
